[Iaude] MPEC L17: 2024 KA2 [a=2.46,e=0.64,i=3.7,H=27.9]

mpec at cfa.harvard.edu mpec at cfa.harvard.edu
Sun Jun 2 00:39:40 EDT 2024


M.P.E.C. 2024-L17                                  Issued 2024 June 2, 04:38 UT

     The Minor Planet Electronic Circulars contain information on unusual
         minor planets, routine data on comets and natural satellites,
         and occasional editorial announcements.  They are published
    on behalf of Division F of the International Astronomical Union by the
          Minor Planet Center, Smithsonian Astrophysical Observatory,
                          Cambridge, MA 02138, U.S.A.
			  
             Prepared using the Tamkin Foundation Computer Network

                              MPC at CFA.HARVARD.EDU
            URL https://www.minorplanetcenter.net/    ISSN 1523-6714

                                    2024 KA2                                    


Observations:
     K24K02A* C2024 05 31.44224315 00 55.657-02 30 08.11         21.66wXEL017F51
     K24K02A  C2024 05 31.45451215 00 53.987-02 29 21.69         21.75wXEL017F51
     K24K02A  C2024 05 31.46680415 00 52.365-02 28 35.18         21.95wXEL017F51
     K24K02A  C2024 05 31.47909715 00 50.798-02 27 47.64         21.70wXEL017F51
     K24K02A KC2024 06 01.18220115 00 38.182-01 35 07.19               VEL017I52
     K24K02A KC2024 06 01.18838515 00 37.177-01 34 34.03         21.05GVEL017I52
     K24K02A KC2024 06 01.19147515 00 36.637-01 34 17.04         20.74GVEL017I52
     K24K02A  C2024 06 01.28402215 00 19.367-01 25 39.57         20.8 GVEL017H01
     K24K02A  C2024 06 01.28724815 00 18.819-01 25 20.74         20.8 GVEL017H01
     K24K02A  C2024 06 01.29743715 00 17.075-01 24 20.74         20.7 GVEL017H01
     K24K02A  C2024 06 01.30527215 00 15.756-01 23 34.63         21.0 GVEL017H01
     K24K02A 3C2024 06 01.41919715 00 10.300-01 10 39.18         21.02GVEL017T14
     K24K02A 3C2024 06 01.42017515 00 10.107-01 10 32.94         20.94GVEL017T14
     K24K02A 3C2024 06 01.42115415 00 09.914-01 10 26.71         21.01GVEL017T14
     K24K02A 3C2024 06 01.42213015 00 09.720-01 10 20.43         20.98GVEL017T14
     K24K02A mC2024 06 02.17580314 59 30.930+00 32 33.36         21.27GVEL017I52
     K24K02A mC2024 06 02.17623314 59 30.908+00 32 38.76         20.95GVEL017I52
     K24K02A mC2024 06 02.17664914 59 30.808+00 32 43.33         20.23GVEL017I52
     K24K02A mC2024 06 02.17706214 59 30.682+00 32 47.54         20.25GVEL017I52

Observer details:
F51 Pan-STARRS 1, Haleakala.  Observers J. Herman, T. Lowe, P. Minguez, A.
    Schultz, I. Smith.  Measurers K. Chambers, T. de Boer, J. Fairlamb, H.
    Gao, M. Huber, C.-C. Lin, E. Magnier, Y. Ramanjooloo, R. Wainscoat, R.
    Weryk.  1.8-m Ritchey-Chretien + CCD.
H01 Magdalena Ridge Observatory, Socorro.  Observers W. H. Ryan, E. V. Ryan.
    Measurer W. H. Ryan.  2.4-m f/8.9 Ritchey-Chretien + CCD.
I52 Steward Observatory, Mt. Lemmon Station.  Observer K. W. Wierzchos.
    Measurers T. Beuden, V. F. Carvajal, D. Fay, J. B. Fazekas, D. C. Fuls, A.
    R. Gibbs, A. D. Grauer, H. Groeller, J. K. Hogan, R. A. Kowalski, S. M.
    Larson, G. J. Leonard, D. Rankin, R. L. Seaman, F. C. Shelly, K. W.
    Wierzchos.  1.0-m prime focus + CCD.
T14 Canada-France-Hawaii Telescope, Maunakea.  Observers R. Wainscoat, L.
    Wells, T. Burdullis.  Measurers R. Weryk, R. Wainscoat.  3.6-m f/4.1
    reflector + CCD.

Orbital elements:
2024 KA2                                                 Earth MOID = 0.0022 AU
Epoch 2024 Mar. 31.0 TT = JDT 2460400.5                 MPC                     
M 334.88223              (2000.0)            P               Q                  
n   0.25476645     Peri.  223.04907     +0.48378578     +0.87298546             
a   2.4643813      Node    75.97263     -0.78460796     +0.46402577             
e   0.6353712      Incl.    3.66579     -0.38773917     +0.15025473             
P   3.87           H   27.95          G   0.15           U   7                  
Residuals in seconds of arc
240531 F51  0.2+  0.3+    240601 H01  0.1-  0.2+    240601 T14  0.0   0.0
240531 F51  0.1+  0.1+    240601 H01  0.0   0.1+    240602 I52 (1.1-  0.6-)
240531 F51  0.2+  0.4-    240601 H01  0.0   0.2+    240602 I52  0.2+  0.1+
240531 F51  0.2+  0.2-    240601 H01  0.1+  0.0     240602 I52  0.3+  0.1+
240601 I52 (0.1-  1.2+)   240601 T14  0.0   0.0     240602 I52  0.0   0.1-
240601 I52  0.1+  0.4+    240601 T14  0.0   0.0
240601 I52  0.3-  0.4+    240601 T14  0.0   0.0

Ephemeris:
2024 KA2                 a,e,i = 2.46, 0.64, 4                   q = 0.8986
Date    TT    R. A. (2000) Decl.     Delta      r    Elong.  Phase     V
2024 05 03    15 07 07.4 -07 39 22   0.2640  1.2687   169.8     8.1    26.1
...
2024 05 18    15 04 44.6 -06 14 31   0.1352  1.1422   164.2    13.9    24.7
...
2024 05 26    15 02 55.2 -05 02 29   0.07265 1.0802   156.8    21.7    23.5
...
2024 06 01    15 00 40.5 -01 48 01   0.02708 1.0374   149.2    30.1    21.5
2024 06 02    14 59 37.3 +00 06 49   0.01957 1.0306   146.8    32.6    20.8
2024 06 03    14 57 20.4 +04 22 23   0.01211 1.0240   142.6    37.0    19.9
...
2024 06 09    03 05 11.5 +09 56 06   0.03348 0.9870    32.4   146.6    28.4
...
2024 06 17    03 05 37.3 +07 37 19   0.09433 0.9465    40.7   135.5    29.0
...
2024 07 02    03 14 48.8 +08 02 18   0.2112  0.9035    52.4   116.9    29.0

A. U. Tomatic                (C) Copyright 2024 MPC           M.P.E.C. 2024-L17





More information about the Iaude mailing list